Year,Month,Day,Hour,Minute,Value (Times are PST for temperature in C)
2019,05,04,00,00,9.80
2019,05,04,00,01,9.80
2019,05,04,00,02,9.80
2019,05,04,00,03,9.80
2019,05,04,00,04,9.80
2019,05,04,00,05,9.80
2019,05,04,00,06,9.80
2019,05,04,00,07,9.80
2019,05,04,00,08,9.80
2019,05,04,00,09,9.80
2019,05,04,00,10,9.70
2019,05,04,00,11,9.70
2019,05,04,00,12,9.70
2019,05,04,00,13,9.70
2019,05,04,00,14,9.60
2019,05,04,00,15,9.60
2019,05,04,00,16,9.50
2019,05,04,00,17,9.50
2019,05,04,00,18,9.50
2019,05,04,00,19,9.40
2019,05,04,00,20,9.40
2019,05,04,00,21,9.40
2019,05,04,00,22,9.30
2019,05,04,00,23,9.30
2019,05,04,00,24,9.30
2019,05,04,00,25,9.30
2019,05,04,00,26,9.20
2019,05,04,00,27,9.20
2019,05,04,00,28,9.20
2019,05,04,00,29,9.10
2019,05,04,00,30,9.10
2019,05,04,00,31,9.10
2019,05,04,00,32,9.10
2019,05,04,00,33,9.00
2019,05,04,00,34,9.00
2019,05,04,00,35,9.00
2019,05,04,00,36,8.90
2019,05,04,00,37,8.90
2019,05,04,00,38,8.90
2019,05,04,00,39,8.80
2019,05,04,00,40,8.80
2019,05,04,00,41,8.80
2019,05,04,00,42,8.80
2019,05,04,00,43,8.70
2019,05,04,00,44,8.70
2019,05,04,00,45,8.70
2019,05,04,00,46,8.70
2019,05,04,00,47,8.70
2019,05,04,00,48,8.70
2019,05,04,00,49,8.60
2019,05,04,00,50,8.60
2019,05,04,00,51,8.60
2019,05,04,00,52,8.50
2019,05,04,00,53,8.50
2019,05,04,00,54,8.50
2019,05,04,00,55,8.40
2019,05,04,00,56,8.40
2019,05,04,00,57,8.40
2019,05,04,00,58,8.40
2019,05,04,00,59,8.40
2019,05,04,01,00,8.40
2019,05,04,01,01,8.30
2019,05,04,01,02,8.30
2019,05,04,01,03,8.30
2019,05,04,01,04,8.30
2019,05,04,01,05,8.30
2019,05,04,01,06,8.30
2019,05,04,01,07,8.30
2019,05,04,01,08,8.20
2019,05,04,01,09,8.20
2019,05,04,01,10,8.20
2019,05,04,01,11,8.20
2019,05,04,01,12,8.20
2019,05,04,01,13,8.20
2019,05,04,01,14,8.10
2019,05,04,01,15,8.10
2019,05,04,01,16,8.10
2019,05,04,01,17,8.10
2019,05,04,01,18,8.10
2019,05,04,01,19,8.10
2019,05,04,01,20,8.10
2019,05,04,01,21,8.00
2019,05,04,01,22,8.00
2019,05,04,01,23,8.00
2019,05,04,01,24,8.00
2019,05,04,01,25,7.90
2019,05,04,01,26,7.90
2019,05,04,01,27,7.90
2019,05,04,01,28,7.90
2019,05,04,01,29,7.90
2019,05,04,01,30,7.90
2019,05,04,01,31,7.90
2019,05,04,01,32,7.90
2019,05,04,01,33,7.90
2019,05,04,01,34,7.80
2019,05,04,01,35,7.80
2019,05,04,01,36,7.80
2019,05,04,01,37,7.80
2019,05,04,01,38,7.80
2019,05,04,01,39,7.80
2019,05,04,01,40,7.80
2019,05,04,01,41,7.80
2019,05,04,01,42,7.80
2019,05,04,01,43,7.80
2019,05,04,01,44,7.80
2019,05,04,01,45,7.80
2019,05,04,01,46,7.70
2019,05,04,01,47,7.70
2019,05,04,01,48,7.70
2019,05,04,01,49,7.70
2019,05,04,01,50,7.70
2019,05,04,01,51,7.70
2019,05,04,01,52,7.70
2019,05,04,01,53,7.70
2019,05,04,01,54,7.70
2019,05,04,01,55,7.70
2019,05,04,01,56,7.70
2019,05,04,01,57,7.70
2019,05,04,01,58,7.70
2019,05,04,01,59,7.70
2019,05,04,02,00,7.70
2019,05,04,02,01,7.60
2019,05,04,02,02,7.60
2019,05,04,02,03,7.60
2019,05,04,02,04,7.70
2019,05,04,02,05,7.70
2019,05,04,02,06,7.70
2019,05,04,02,07,7.70
2019,05,04,02,08,7.70
2019,05,04,02,09,7.70
2019,05,04,02,10,7.70
2019,05,04,02,11,7.70
2019,05,04,02,12,7.70
2019,05,04,02,13,7.70
2019,05,04,02,14,7.70
2019,05,04,02,15,7.70
2019,05,04,02,16,7.70
2019,05,04,02,17,7.70
2019,05,04,02,18,7.70
2019,05,04,02,19,7.70
2019,05,04,02,20,7.70
2019,05,04,02,21,7.70
2019,05,04,02,22,7.70
2019,05,04,02,23,7.70
2019,05,04,02,24,7.70
2019,05,04,02,25,7.70
2019,05,04,02,26,7.70
2019,05,04,02,27,7.70
2019,05,04,02,28,7.70
2019,05,04,02,29,7.70
2019,05,04,02,30,7.70
2019,05,04,02,31,7.70
2019,05,04,02,32,7.70
2019,05,04,02,33,7.70
2019,05,04,02,34,7.70
2019,05,04,02,35,7.70
2019,05,04,02,36,7.70
2019,05,04,02,37,7.70
2019,05,04,02,38,7.70
2019,05,04,02,39,7.70
2019,05,04,02,40,7.70
2019,05,04,02,41,7.70
2019,05,04,02,42,7.70
2019,05,04,02,43,7.70
2019,05,04,02,44,7.70
2019,05,04,02,45,7.70
2019,05,04,02,46,7.70
2019,05,04,02,47,7.60
2019,05,04,02,48,7.70
2019,05,04,02,49,7.60
2019,05,04,02,50,7.60
2019,05,04,02,51,7.60
2019,05,04,02,52,7.60
2019,05,04,02,53,7.60
2019,05,04,02,54,7.60
2019,05,04,02,55,7.60
2019,05,04,02,56,7.60
2019,05,04,02,57,7.60
2019,05,04,02,58,7.70
2019,05,04,02,59,7.70
2019,05,04,03,00,7.70
2019,05,04,03,01,7.70
2019,05,04,03,02,7.70
2019,05,04,03,03,7.80
2019,05,04,03,04,7.80
2019,05,04,03,05,7.80
2019,05,04,03,06,7.80
2019,05,04,03,07,7.80
2019,05,04,03,08,7.90
2019,05,04,03,09,7.90
2019,05,04,03,10,7.90
2019,05,04,03,11,8.00
2019,05,04,03,12,8.00
2019,05,04,03,13,8.00
2019,05,04,03,14,8.10
2019,05,04,03,15,8.10
2019,05,04,03,16,8.10
2019,05,04,03,17,8.10
2019,05,04,03,18,8.20
2019,05,04,03,19,8.20
2019,05,04,03,20,8.30
2019,05,04,03,21,8.30
2019,05,04,03,22,8.30
2019,05,04,03,23,8.30
2019,05,04,03,24,8.30
2019,05,04,03,25,8.20
2019,05,04,03,26,8.30
2019,05,04,03,27,8.30
2019,05,04,03,28,8.30
2019,05,04,03,29,8.30
2019,05,04,03,30,8.30
2019,05,04,03,31,8.40
2019,05,04,03,32,8.40
2019,05,04,03,33,8.50
2019,05,04,03,34,8.60
2019,05,04,03,35,8.60
2019,05,04,03,36,8.70
2019,05,04,03,37,8.80
2019,05,04,03,38,8.90
2019,05,04,03,39,9.00
2019,05,04,03,40,9.00
2019,05,04,03,41,9.10
2019,05,04,03,42,9.10
2019,05,04,03,43,9.10
2019,05,04,03,44,9.10
2019,05,04,03,45,9.10
2019,05,04,03,46,9.10
2019,05,04,03,47,9.10
2019,05,04,03,48,9.00
2019,05,04,03,49,9.10
2019,05,04,03,50,9.10
2019,05,04,03,51,9.10
2019,05,04,03,52,9.20
2019,05,04,03,53,9.20
2019,05,04,03,54,9.30
2019,05,04,03,55,9.30
2019,05,04,03,56,9.30
2019,05,04,03,57,9.30
2019,05,04,03,58,9.20
2019,05,04,03,59,9.20
2019,05,04,04,00,9.20
2019,05,04,04,01,9.20
2019,05,04,04,02,9.20
2019,05,04,04,03,9.20
2019,05,04,04,04,9.20
2019,05,04,04,05,9.30
2019,05,04,04,06,9.30
2019,05,04,04,07,9.30
2019,05,04,04,08,9.40
2019,05,04,04,09,9.40
2019,05,04,04,10,9.50
2019,05,04,04,11,9.50
2019,05,04,04,12,9.50
2019,05,04,04,13,9.50
2019,05,04,04,14,9.60
2019,05,04,04,15,9.60
2019,05,04,04,16,9.60
2019,05,04,04,17,9.70
2019,05,04,04,18,9.70
2019,05,04,04,19,9.70
2019,05,04,04,20,9.70
2019,05,04,04,21,9.70
2019,05,04,04,22,9.70
2019,05,04,04,23,9.70
2019,05,04,04,24,9.70
2019,05,04,04,25,9.70
2019,05,04,04,26,9.70
2019,05,04,04,27,9.70
2019,05,04,04,28,9.70
2019,05,04,04,29,9.70
2019,05,04,04,30,9.70
2019,05,04,04,31,9.60
2019,05,04,04,32,9.60
2019,05,04,04,33,9.60
2019,05,04,04,34,9.60
2019,05,04,04,35,9.60
2019,05,04,04,36,9.60
2019,05,04,04,37,9.60
2019,05,04,04,38,9.60
2019,05,04,04,39,9.60
2019,05,04,04,40,9.70
2019,05,04,04,41,9.70
2019,05,04,04,42,9.70
2019,05,04,04,43,9.70
2019,05,04,04,44,9.70
2019,05,04,04,45,9.70
2019,05,04,04,46,9.70
2019,05,04,04,47,9.70
2019,05,04,04,48,9.60
2019,05,04,04,49,9.70
2019,05,04,04,50,9.70
2019,05,04,04,51,9.60
2019,05,04,04,52,9.70
2019,05,04,04,53,9.70
2019,05,04,04,54,9.70
2019,05,04,04,55,9.70
2019,05,04,04,56,9.70
2019,05,04,04,57,9.60
2019,05,04,04,58,9.70
2019,05,04,04,59,9.70
2019,05,04,05,00,9.60
2019,05,04,05,01,9.70
2019,05,04,05,02,9.70
2019,05,04,05,03,9.60
2019,05,04,05,04,9.60
2019,05,04,05,05,9.60
2019,05,04,05,06,9.60
2019,05,04,05,07,9.50
2019,05,04,05,08,9.50
2019,05,04,05,09,9.40
2019,05,04,05,10,9.40
2019,05,04,05,11,9.30
2019,05,04,05,12,9.30
2019,05,04,05,13,9.20
2019,05,04,05,14,9.20
2019,05,04,05,15,9.20
2019,05,04,05,16,9.10
2019,05,04,05,17,9.10
2019,05,04,05,18,9.10
2019,05,04,05,19,9.10
2019,05,04,05,20,9.00
2019,05,04,05,21,9.00
2019,05,04,05,22,9.00
2019,05,04,05,23,9.00
2019,05,04,05,24,9.00
2019,05,04,05,25,9.00
2019,05,04,05,26,9.00
2019,05,04,05,27,8.90
2019,05,04,05,28,9.00
2019,05,04,05,29,9.00
2019,05,04,05,30,9.10
2019,05,04,05,31,9.10
2019,05,04,05,32,9.20
2019,05,04,05,33,9.20
2019,05,04,05,34,9.30
2019,05,04,05,35,9.30
2019,05,04,05,36,9.40
2019,05,04,05,37,9.50
2019,05,04,05,38,9.60
2019,05,04,05,39,9.60
2019,05,04,05,40,9.60
2019,05,04,05,41,9.60
2019,05,04,05,42,9.60
2019,05,04,05,43,9.60
2019,05,04,05,44,9.60
2019,05,04,05,45,9.60
2019,05,04,05,46,9.50
2019,05,04,05,47,9.50
2019,05,04,05,48,9.40
2019,05,04,05,49,9.40
2019,05,04,05,50,9.50
2019,05,04,05,51,9.60
2019,05,04,05,52,9.60
2019,05,04,05,53,9.60
2019,05,04,05,54,9.70
2019,05,04,05,55,9.70
2019,05,04,05,56,9.70
2019,05,04,05,57,9.70
2019,05,04,05,58,9.70
2019,05,04,05,59,9.60
2019,05,04,06,00,9.60
2019,05,04,06,01,9.60
2019,05,04,06,02,9.60
2019,05,04,06,03,9.60
2019,05,04,06,04,9.60
2019,05,04,06,05,9.60
2019,05,04,06,06,9.60
2019,05,04,06,07,9.60
2019,05,04,06,08,9.60
2019,05,04,06,09,9.60
2019,05,04,06,10,9.60
2019,05,04,06,11,9.60
2019,05,04,06,12,9.60
2019,05,04,06,13,9.70
2019,05,04,06,14,9.70
2019,05,04,06,15,9.70
2019,05,04,06,16,9.80
2019,05,04,06,17,9.70
2019,05,04,06,18,9.80
2019,05,04,06,19,9.80
2019,05,04,06,20,9.80
2019,05,04,06,21,9.80
2019,05,04,06,22,9.70
2019,05,04,06,23,9.70
2019,05,04,06,24,9.70
2019,05,04,06,25,9.70
2019,05,04,06,26,9.80
2019,05,04,06,27,9.80
2019,05,04,06,28,9.80
2019,05,04,06,29,9.90
2019,05,04,06,30,9.90
2019,05,04,06,31,9.90
2019,05,04,06,32,9.90
2019,05,04,06,33,9.90
2019,05,04,06,34,9.90
2019,05,04,06,35,10.00
2019,05,04,06,36,10.00
2019,05,04,06,37,10.00
2019,05,04,06,38,10.10
2019,05,04,06,39,10.10
2019,05,04,06,40,10.00
2019,05,04,06,41,10.00
2019,05,04,06,42,10.00
2019,05,04,06,43,9.90
2019,05,04,06,44,9.90
2019,05,04,06,45,9.90
2019,05,04,06,46,10.00
2019,05,04,06,47,10.00
2019,05,04,06,48,10.00
2019,05,04,06,49,10.00
2019,05,04,06,50,10.00
2019,05,04,06,51,10.00
2019,05,04,06,52,10.00
2019,05,04,06,53,10.00
2019,05,04,06,54,10.10
2019,05,04,06,55,10.10
2019,05,04,06,56,10.10
2019,05,04,06,57,10.10
2019,05,04,06,58,10.10
2019,05,04,06,59,10.10
2019,05,04,07,00,10.10
2019,05,04,07,01,10.10
2019,05,04,07,02,10.20
2019,05,04,07,03,10.20
2019,05,04,07,04,10.20
2019,05,04,07,05,10.20
2019,05,04,07,06,10.20
2019,05,04,07,07,10.20
2019,05,04,07,08,10.20
2019,05,04,07,09,10.20
2019,05,04,07,10,10.20
2019,05,04,07,11,10.20
2019,05,04,07,12,10.20
2019,05,04,07,13,10.30
2019,05,04,07,14,10.30
2019,05,04,07,15,10.30
2019,05,04,07,16,10.30
2019,05,04,07,17,10.30
2019,05,04,07,18,10.30
2019,05,04,07,19,10.30
2019,05,04,07,20,10.30
2019,05,04,07,21,10.30
2019,05,04,07,22,10.30
2019,05,04,07,23,10.40
2019,05,04,07,24,10.40
2019,05,04,07,25,10.40
2019,05,04,07,26,10.40
2019,05,04,07,27,10.40
2019,05,04,07,28,10.40
2019,05,04,07,29,10.40
2019,05,04,07,30,10.40
2019,05,04,07,31,10.40
2019,05,04,07,32,10.40
2019,05,04,07,33,10.50
2019,05,04,07,34,10.50
2019,05,04,07,35,10.50
2019,05,04,07,36,10.50
2019,05,04,07,37,10.60
2019,05,04,07,38,10.60
2019,05,04,07,39,10.60
2019,05,04,07,40,10.60
2019,05,04,07,41,10.60
2019,05,04,07,42,10.60
2019,05,04,07,43,10.60
2019,05,04,07,44,10.60
2019,05,04,07,45,10.60
2019,05,04,07,46,10.60
2019,05,04,07,47,10.60
2019,05,04,07,48,10.60
2019,05,04,07,49,10.60
2019,05,04,07,50,10.60
2019,05,04,07,51,10.60
2019,05,04,07,52,10.60
2019,05,04,07,53,10.60
2019,05,04,07,54,10.60
2019,05,04,07,55,10.60
2019,05,04,07,56,10.60
2019,05,04,07,57,10.60
2019,05,04,07,58,10.60
2019,05,04,07,59,10.60
2019,05,04,08,00,10.70
2019,05,04,08,01,10.60
2019,05,04,08,02,10.70
2019,05,04,08,03,10.70
2019,05,04,08,04,10.60
2019,05,04,08,05,10.70
2019,05,04,08,06,10.70
2019,05,04,08,07,10.70
2019,05,04,08,08,10.70
2019,05,04,08,09,10.70
2019,05,04,08,10,10.70
2019,05,04,08,11,10.70
2019,05,04,08,12,10.70
2019,05,04,08,13,10.70
2019,05,04,08,14,10.70
2019,05,04,08,15,10.70
2019,05,04,08,16,10.80
2019,05,04,08,17,10.80
2019,05,04,08,18,10.80
2019,05,04,08,19,10.80
2019,05,04,08,20,10.80
2019,05,04,08,21,10.80
2019,05,04,08,22,10.80
2019,05,04,08,23,10.80
2019,05,04,08,24,10.80
2019,05,04,08,25,10.80
2019,05,04,08,26,10.80
2019,05,04,08,27,10.80
2019,05,04,08,28,10.80
2019,05,04,08,29,10.80
2019,05,04,08,30,10.90
2019,05,04,08,31,10.90
2019,05,04,08,32,10.90
2019,05,04,08,33,10.90
2019,05,04,08,34,10.90
2019,05,04,08,35,10.90
2019,05,04,08,36,10.90
2019,05,04,08,37,10.90
2019,05,04,08,38,11.00
2019,05,04,08,39,10.90
2019,05,04,08,40,10.90
2019,05,04,08,41,10.90
2019,05,04,08,42,10.90
2019,05,04,08,43,10.90
2019,05,04,08,44,10.90
2019,05,04,08,45,10.90
2019,05,04,08,46,10.90
2019,05,04,08,47,10.90
2019,05,04,08,48,10.90
2019,05,04,08,49,10.90
2019,05,04,08,50,10.90
2019,05,04,08,51,10.90
2019,05,04,08,52,11.00
2019,05,04,08,53,11.00
2019,05,04,08,54,11.00
2019,05,04,08,55,11.00
2019,05,04,08,56,11.10
2019,05,04,08,57,11.00
2019,05,04,08,58,11.10
2019,05,04,08,59,11.00
2019,05,04,09,00,11.10
2019,05,04,09,01,11.10
2019,05,04,09,02,11.10
2019,05,04,09,03,11.10
2019,05,04,09,04,11.10
2019,05,04,09,05,11.20
2019,05,04,09,06,11.20
2019,05,04,09,07,11.20
2019,05,04,09,08,11.20
2019,05,04,09,09,11.30
2019,05,04,09,10,11.30
2019,05,04,09,11,11.30
2019,05,04,09,12,11.30
2019,05,04,09,13,11.30
2019,05,04,09,14,11.20
2019,05,04,09,15,11.30
2019,05,04,09,16,11.30
2019,05,04,09,17,11.30
2019,05,04,09,18,11.30
2019,05,04,09,19,11.30
2019,05,04,09,20,11.40
2019,05,04,09,21,11.40
2019,05,04,09,22,11.50
2019,05,04,09,23,11.50
2019,05,04,09,24,11.50
2019,05,04,09,25,11.60
2019,05,04,09,26,11.60
2019,05,04,09,27,11.60
2019,05,04,09,28,11.60
2019,05,04,09,29,11.70
2019,05,04,09,30,11.80
2019,05,04,09,31,11.80
2019,05,04,09,32,11.80
2019,05,04,09,33,11.80
2019,05,04,09,34,11.80
2019,05,04,09,35,11.80
2019,05,04,09,36,11.90
2019,05,04,09,37,11.90
2019,05,04,09,38,12.00
2019,05,04,09,39,12.00
2019,05,04,09,40,12.00
2019,05,04,09,41,12.00
2019,05,04,09,42,12.10
2019,05,04,09,43,12.10
2019,05,04,09,44,12.10
2019,05,04,09,45,12.10
2019,05,04,09,46,12.10
2019,05,04,09,47,12.20
2019,05,04,09,48,12.20
2019,05,04,09,49,12.30
2019,05,04,09,50,12.30
2019,05,04,09,51,12.30
2019,05,04,09,52,12.40
2019,05,04,09,53,12.40
2019,05,04,09,54,12.50
2019,05,04,09,55,12.50
2019,05,04,09,56,12.60
2019,05,04,09,57,12.60
2019,05,04,09,58,12.60
2019,05,04,09,59,12.70
2019,05,04,10,00,12.70
2019,05,04,10,01,12.70
2019,05,04,10,02,12.70
2019,05,04,10,03,12.70
2019,05,04,10,04,12.70
2019,05,04,10,05,12.70
2019,05,04,10,06,12.70
2019,05,04,10,07,12.70
2019,05,04,10,08,12.70
2019,05,04,10,09,12.70
2019,05,04,10,10,12.60
2019,05,04,10,11,12.60
2019,05,04,10,12,12.60
2019,05,04,10,13,12.60
2019,05,04,10,14,12.60
2019,05,04,10,15,12.60
2019,05,04,10,16,12.60
2019,05,04,10,17,12.60
2019,05,04,10,18,12.60
2019,05,04,10,19,12.60
2019,05,04,10,20,12.70
2019,05,04,10,21,12.80
2019,05,04,10,22,12.80
2019,05,04,10,23,12.80
2019,05,04,10,24,12.90
2019,05,04,10,25,12.90
2019,05,04,10,26,12.90
2019,05,04,10,27,12.90
2019,05,04,10,28,13.00
2019,05,04,10,29,13.00
2019,05,04,10,30,13.00
2019,05,04,10,31,13.00
2019,05,04,10,32,13.00
2019,05,04,10,33,13.00
2019,05,04,10,34,12.90
2019,05,04,10,35,12.80
2019,05,04,10,36,12.80
2019,05,04,10,37,12.80
2019,05,04,10,38,12.80
2019,05,04,10,39,12.70
2019,05,04,10,40,12.70
2019,05,04,10,41,12.60
2019,05,04,10,42,12.70
2019,05,04,10,43,12.70
2019,05,04,10,44,12.70
2019,05,04,10,45,12.70
2019,05,04,10,46,12.60
2019,05,04,10,47,12.70
2019,05,04,10,48,12.70
2019,05,04,10,49,12.70
2019,05,04,10,50,12.60
2019,05,04,10,51,12.70
2019,05,04,10,52,12.70
2019,05,04,10,53,12.60
2019,05,04,10,54,12.60
2019,05,04,10,55,12.60
2019,05,04,10,56,12.60
2019,05,04,10,57,12.60
2019,05,04,10,58,12.50
2019,05,04,10,59,12.50
2019,05,04,11,00,12.50
2019,05,04,11,01,12.50
2019,05,04,11,02,12.50
2019,05,04,11,03,12.50
2019,05,04,11,04,12.50
2019,05,04,11,05,12.60
2019,05,04,11,06,12.60
2019,05,04,11,07,12.60
2019,05,04,11,08,12.60
2019,05,04,11,09,12.60
2019,05,04,11,10,12.60
2019,05,04,11,11,12.70
2019,05,04,11,12,12.70
2019,05,04,11,13,12.80
2019,05,04,11,14,12.90
2019,05,04,11,15,13.00
2019,05,04,11,16,13.10
2019,05,04,11,17,13.10
2019,05,04,11,18,13.20
2019,05,04,11,19,13.20
2019,05,04,11,20,13.20
2019,05,04,11,21,13.20
2019,05,04,11,22,13.10
2019,05,04,11,23,13.10
2019,05,04,11,24,13.10
2019,05,04,11,25,13.10
2019,05,04,11,26,13.10
2019,05,04,11,27,13.10
2019,05,04,11,28,13.00
2019,05,04,11,29,13.10
2019,05,04,11,30,13.10
2019,05,04,11,31,13.10
2019,05,04,11,32,13.10
2019,05,04,11,33,13.10
2019,05,04,11,34,13.00
2019,05,04,11,35,12.90
2019,05,04,11,36,12.90
2019,05,04,11,37,12.90
2019,05,04,11,38,12.80
2019,05,04,11,39,12.80
2019,05,04,11,40,12.80
2019,05,04,11,41,12.80
2019,05,04,11,42,12.70
2019,05,04,11,43,12.70
2019,05,04,11,44,12.60
2019,05,04,11,45,12.60
2019,05,04,11,46,12.60
2019,05,04,11,47,12.70
2019,05,04,11,48,12.70
2019,05,04,11,49,12.70
2019,05,04,11,50,12.70
2019,05,04,11,51,12.80
2019,05,04,11,52,12.80
2019,05,04,11,53,12.80
2019,05,04,11,54,12.90
2019,05,04,11,55,13.00
2019,05,04,11,56,13.00
2019,05,04,11,57,13.00
2019,05,04,11,58,13.00
2019,05,04,11,59,13.00
2019,05,04,12,00,13.10
2019,05,04,12,01,13.10
2019,05,04,12,02,13.00
2019,05,04,12,03,13.10
2019,05,04,12,04,13.10
2019,05,04,12,05,13.10
2019,05,04,12,06,13.10
2019,05,04,12,07,13.10
2019,05,04,12,08,13.20
2019,05,04,12,09,13.20
2019,05,04,12,10,13.10
2019,05,04,12,11,13.10
2019,05,04,12,12,13.20
2019,05,04,12,13,13.20
2019,05,04,12,14,13.20
2019,05,04,12,15,13.30
2019,05,04,12,16,13.40
2019,05,04,12,17,13.40
2019,05,04,12,18,13.50
2019,05,04,12,19,13.50
2019,05,04,12,20,13.50
2019,05,04,12,21,13.40
2019,05,04,12,22,13.40
2019,05,04,12,23,13.40
2019,05,04,12,24,13.40
2019,05,04,12,25,13.40
2019,05,04,12,26,13.40
2019,05,04,12,27,13.50
2019,05,04,12,28,13.40
2019,05,04,12,29,13.30
2019,05,04,12,30,13.20
2019,05,04,12,31,13.10
2019,05,04,12,32,13.10
2019,05,04,12,33,13.10
2019,05,04,12,34,13.00
2019,05,04,12,35,13.00
2019,05,04,12,36,13.10
2019,05,04,12,37,13.20
2019,05,04,12,38,13.30
2019,05,04,12,39,13.30
2019,05,04,12,40,13.30
2019,05,04,12,41,13.30
2019,05,04,12,42,13.40
2019,05,04,12,43,13.40
2019,05,04,12,44,13.40
2019,05,04,12,45,13.40
2019,05,04,12,46,13.30
2019,05,04,12,47,13.30
2019,05,04,12,48,13.20
2019,05,04,12,49,13.20
2019,05,04,12,50,13.20
2019,05,04,12,51,13.30
2019,05,04,12,52,13.30
2019,05,04,12,53,13.30
2019,05,04,12,54,13.30
2019,05,04,12,55,13.40
2019,05,04,12,56,13.40
2019,05,04,12,57,13.40
2019,05,04,12,58,13.50
2019,05,04,12,59,13.50
2019,05,04,13,00,13.50
2019,05,04,13,01,13.50
2019,05,04,13,02,13.40
2019,05,04,13,03,13.40
2019,05,04,13,04,13.30
2019,05,04,13,05,13.30
2019,05,04,13,06,13.20
2019,05,04,13,07,13.20
2019,05,04,13,08,13.20
2019,05,04,13,09,13.10
2019,05,04,13,10,13.10
2019,05,04,13,11,13.10
2019,05,04,13,12,13.10
2019,05,04,13,13,13.10
2019,05,04,13,14,13.10
2019,05,04,13,15,13.10
2019,05,04,13,16,13.10
2019,05,04,13,17,13.10
2019,05,04,13,18,13.10
2019,05,04,13,19,13.10
2019,05,04,13,20,13.20
2019,05,04,13,21,13.30
2019,05,04,13,22,13.40
2019,05,04,13,23,13.50
2019,05,04,13,24,13.60
2019,05,04,13,25,13.70
2019,05,04,13,26,13.70
2019,05,04,13,27,13.70
2019,05,04,13,28,13.90
2019,05,04,13,29,13.80
2019,05,04,13,30,13.70
2019,05,04,13,31,13.60
2019,05,04,13,32,13.60
2019,05,04,13,33,13.60
2019,05,04,13,34,13.60
2019,05,04,13,35,13.50
2019,05,04,13,36,13.50
2019,05,04,13,37,13.50
2019,05,04,13,38,13.50
2019,05,04,13,39,13.50
2019,05,04,13,40,13.60
2019,05,04,13,41,13.70
2019,05,04,13,42,13.70
2019,05,04,13,43,13.80
2019,05,04,13,44,13.90
2019,05,04,13,45,14.00
2019,05,04,13,46,14.00
2019,05,04,13,47,14.00
2019,05,04,13,48,14.00
2019,05,04,13,49,14.00
2019,05,04,13,50,14.00
2019,05,04,13,51,13.90
2019,05,04,13,52,13.90
2019,05,04,13,53,13.90
2019,05,04,13,54,14.00
2019,05,04,13,55,14.00
2019,05,04,13,56,14.10
2019,05,04,13,57,14.10
2019,05,04,13,58,14.00
2019,05,04,13,59,13.90
2019,05,04,14,00,13.80
2019,05,04,14,01,13.80
2019,05,04,14,02,13.70
2019,05,04,14,03,13.70
2019,05,04,14,04,13.60
2019,05,04,14,05,13.60
2019,05,04,14,06,13.60
2019,05,04,14,07,13.60
2019,05,04,14,08,13.70
2019,05,04,14,09,13.80
2019,05,04,14,10,13.90
2019,05,04,14,11,14.00
2019,05,04,14,12,14.10
2019,05,04,14,13,14.20
2019,05,04,14,14,14.30
2019,05,04,14,15,14.30
2019,05,04,14,16,14.30
2019,05,04,14,17,14.20
2019,05,04,14,18,14.20
2019,05,04,14,19,14.20
2019,05,04,14,20,14.10
2019,05,04,14,21,14.10
2019,05,04,14,22,14.00
2019,05,04,14,23,14.00
2019,05,04,14,24,14.00
2019,05,04,14,25,14.00
2019,05,04,14,26,14.00
2019,05,04,14,27,14.10
2019,05,04,14,28,14.10
2019,05,04,14,29,14.10
2019,05,04,14,30,14.10
2019,05,04,14,31,14.20
2019,05,04,14,32,14.20
2019,05,04,14,33,14.20
2019,05,04,14,34,14.20
2019,05,04,14,35,14.20
2019,05,04,14,36,14.20
2019,05,04,14,37,14.20
2019,05,04,14,38,14.30
2019,05,04,14,39,14.30
2019,05,04,14,40,14.40
2019,05,04,14,41,14.50
2019,05,04,14,42,14.60
2019,05,04,14,43,14.60
2019,05,04,14,44,14.70
2019,05,04,14,45,14.60
2019,05,04,14,46,14.60
2019,05,04,14,47,14.70
2019,05,04,14,48,14.80
2019,05,04,14,49,14.90
2019,05,04,14,50,15.10
2019,05,04,14,51,15.20
2019,05,04,14,52,15.30
2019,05,04,14,53,15.30
2019,05,04,14,54,15.30
2019,05,04,14,55,15.20
2019,05,04,14,56,15.10
2019,05,04,14,57,15.10
2019,05,04,14,58,15.10
2019,05,04,14,59,15.10
2019,05,04,15,00,15.20
2019,05,04,15,01,15.20
2019,05,04,15,02,15.20
2019,05,04,15,03,15.10
2019,05,04,15,04,15.20
2019,05,04,15,05,15.20
2019,05,04,15,06,15.20
2019,05,04,15,07,15.30
2019,05,04,15,08,15.30
2019,05,04,15,09,15.30
2019,05,04,15,10,15.30
2019,05,04,15,11,15.30
2019,05,04,15,12,15.20
2019,05,04,15,13,15.20
2019,05,04,15,14,15.20
2019,05,04,15,15,15.30
2019,05,04,15,16,15.40
2019,05,04,15,17,15.40
2019,05,04,15,18,15.50
2019,05,04,15,19,15.60
2019,05,04,15,20,15.60
2019,05,04,15,21,15.70
2019,05,04,15,22,15.70
2019,05,04,15,23,15.70
2019,05,04,15,24,15.80
2019,05,04,15,25,15.80
2019,05,04,15,26,15.80
2019,05,04,15,27,15.80
2019,05,04,15,28,15.80
2019,05,04,15,29,15.90
2019,05,04,15,30,15.90
2019,05,04,15,31,16.00
2019,05,04,15,32,16.00
2019,05,04,15,33,16.00
2019,05,04,15,34,16.00
2019,05,04,15,35,16.00
2019,05,04,15,36,16.00
2019,05,04,15,37,16.10
2019,05,04,15,38,16.10
2019,05,04,15,39,16.10
2019,05,04,15,40,16.10
2019,05,04,15,41,16.10
2019,05,04,15,42,16.10
2019,05,04,15,43,16.00
2019,05,04,15,44,16.00
2019,05,04,15,45,16.00
2019,05,04,15,46,16.00
2019,05,04,15,47,16.00
2019,05,04,15,48,16.00
2019,05,04,15,49,16.00
2019,05,04,15,50,16.00
2019,05,04,15,51,16.00
2019,05,04,15,52,16.00
2019,05,04,15,53,16.00
2019,05,04,15,54,16.10
2019,05,04,15,55,16.10
2019,05,04,15,56,16.10
2019,05,04,15,57,16.20
2019,05,04,15,58,16.20
2019,05,04,15,59,16.30
2019,05,04,16,00,16.30
2019,05,04,16,01,16.40
2019,05,04,16,02,16.40
2019,05,04,16,03,16.40
2019,05,04,16,04,16.30
2019,05,04,16,05,16.20
2019,05,04,16,06,16.10
2019,05,04,16,07,16.00
2019,05,04,16,08,16.00
2019,05,04,16,09,16.00
2019,05,04,16,10,16.00
2019,05,04,16,11,16.10
2019,05,04,16,12,16.00
2019,05,04,16,13,16.00
2019,05,04,16,14,16.00
2019,05,04,16,15,16.00
2019,05,04,16,16,15.90
2019,05,04,16,17,15.90
2019,05,04,16,18,16.00
2019,05,04,16,19,16.00
2019,05,04,16,20,16.10
2019,05,04,16,21,16.10
2019,05,04,16,22,16.20
2019,05,04,16,23,16.30
2019,05,04,16,24,16.30
2019,05,04,16,25,16.40
2019,05,04,16,26,16.40
2019,05,04,16,27,16.50
2019,05,04,16,28,16.60
2019,05,04,16,29,16.60
2019,05,04,16,30,16.60
2019,05,04,16,31,16.60
2019,05,04,16,32,16.70
2019,05,04,16,33,16.80
2019,05,04,16,34,16.80
2019,05,04,16,35,16.90
2019,05,04,16,36,17.10
2019,05,04,16,37,17.20
2019,05,04,16,38,17.30
2019,05,04,16,39,17.40
2019,05,04,16,40,17.50
2019,05,04,16,41,17.60
2019,05,04,16,42,17.60
2019,05,04,16,43,17.70
2019,05,04,16,44,17.70
2019,05,04,16,45,17.70
2019,05,04,16,46,17.80
2019,05,04,16,47,17.80
2019,05,04,16,48,17.80
2019,05,04,16,49,17.70
2019,05,04,16,50,17.60
2019,05,04,16,51,17.50
2019,05,04,16,52,17.50
2019,05,04,16,53,17.40
2019,05,04,16,54,17.40
2019,05,04,16,55,17.40
2019,05,04,16,56,17.30
2019,05,04,16,57,17.30
2019,05,04,16,58,17.30
2019,05,04,16,59,17.30
2019,05,04,17,00,17.30
2019,05,04,17,01,17.30
2019,05,04,17,02,17.40
2019,05,04,17,03,17.40
2019,05,04,17,04,17.30
2019,05,04,17,05,17.30
2019,05,04,17,06,17.30
2019,05,04,17,07,17.40
2019,05,04,17,08,17.40
2019,05,04,17,09,17.40
2019,05,04,17,10,17.40
2019,05,04,17,11,17.50
2019,05,04,17,12,17.50
2019,05,04,17,13,17.50
2019,05,04,17,14,17.50
2019,05,04,17,15,17.50
2019,05,04,17,16,17.50
2019,05,04,17,17,17.50
2019,05,04,17,18,17.50
2019,05,04,17,19,17.40
2019,05,04,17,20,17.50
2019,05,04,17,21,17.50
2019,05,04,17,22,17.60
2019,05,04,17,23,17.60
2019,05,04,17,24,17.70
2019,05,04,17,25,17.70
2019,05,04,17,26,17.70
2019,05,04,17,27,17.60
2019,05,04,17,28,17.50
2019,05,04,17,29,17.50
2019,05,04,17,30,17.50
2019,05,04,17,31,17.40
2019,05,04,17,32,17.40
2019,05,04,17,33,17.40
2019,05,04,17,34,17.40
2019,05,04,17,35,17.40
2019,05,04,17,36,17.50